Regional Weather Roundup
Issued by NWS

Home | Current Version | Previous Version | Text Only | Print | Product List | Glossary On
Versions: 1 2 3 4 5 6 7 8 9 10 11 12 13 14 15 16 17 18 19 20 21 22 23 24 25 26 27 28 29 30 31 32 33 34 35 36 37 38 39 40 41 42 43 44 45 46 47 48 49 50
000
ASUS43 KBIS 210610
RWRND

NORTH DAKOTA REGIONAL WEATHER ROUNDUP
NATIONAL WEATHER SERVICE BISMARCK ND
1200 AM CST SUN DEC 21 2014

NOTE: "FAIR" INDICATES FEW OR NO CLOUDS BELOW 12,000 FEET WITH NO
SIGNIFICANT WEATHER AND/OR OBSTRUCTIONS TO VISIBILITY.


NDZ001>003-009>011-017-210700-
NORTHWEST NORTH DAKOTA

CITY           SKY/WX    TMP DP  RH WIND       PRES   REMARKS
WILLISTON      CLEAR     22  19  89 CALM      29.71F
6HR MIN TEMP:  19; 6HR MAX TEMP:  34;

MINOT          PTCLDY    27  23  85 SW8       29.70S WCI  19
MINOT AFB      PTCLDY    26  26 100 SW6       29.70S WCI  20
$$

NDZ018>021-031>035-040>046-210700-
SOUTHWEST NORTH DAKOTA

CITY           SKY/WX    TMP DP  RH WIND       PRES   REMARKS
BISMARCK       CLEAR     19  18  95 CALM      29.78F
6HR MIN TEMP:  14; 6HR MAX TEMP:  25;

DICKINSON      PTCLDY    28  20  71 CALM      29.71F
GARRISON         N/A     24  22  91 CALM      29.73S
6HR MIN TEMP:  24; 6HR MAX TEMP:  30;

HETTINGER ARPT PTCLDY    25  21  85 CALM      29.76F
$$

NDZ004>008-012>016-024-026-027-054-210700-
NORTHEAST NORTH DAKOTA

CITY           SKY/WX    TMP DP  RH WIND       PRES   REMARKS
GRAND FORKS    CLOUDY    31  29  92 S16       29.83F WCI  20
GRND FRKS AFB  LGT SNOW  31  31 100 SW15G21   29.82F FOG     WCI  20
DEVILS LAKE    CLOUDY    27  19  74 S7        29.75S WCI  19
$$

NDZ022-023-025-028>030-036>039-047>053-210700-
SOUTHEAST NORTH DAKOTA

CITY           SKY/WX    TMP DP  RH WIND       PRES   REMARKS
FARGO          CLOUDY    32  29  88 S15       29.88F FOG
6HR MIN TEMP:  32; 6HR MAX TEMP:  33;

JAMESTOWN      CLEAR     24  21  88 S10       29.79F WCI  14
$$



USA.gov is the U.S. government's official web portal to all federal, state and local government web resources and services.